GW3847 Weather Reports


Display with metric or nautical units.
time (UTC)temp
F
wind
direction
speed
MPH
gust
MPH
rain 1hr
in
rain 24hr
in
rain mn
in
humidity
%
barometer
mb
20260507111556 44 246 0.0 0.0 0.00 0.00 0.00 92 1009.6
20260507111053 44 86 0.0 0.0 0.00 0.00 0.00 93 1009.3
20260507110549 44 228 0.0 0.0 0.00 0.00 0.00 93 1009.5
20260507110046 44 173 0.0 0.0 0.00 0.00 0.00 92 1009.4
20260507105542 43 293 0.0 0.0 0.00 0.00 0.00 93 1009.5
20260507105038 43 317 0.0 2.0 0.00 0.00 0.00 93 1009.3
20260507104536 43 261 0.0 0.0 0.00 0.00 0.00 93 1009.2
20260507104032 43 201 0.0 0.0 0.00 0.00 0.00 94 1009.0
20260507103528 43 208 0.0 0.0 0.00 0.00 0.00 94 1008.9
20260507103025 43 295 0.0 2.0 0.00 0.00 0.00 94 1008.9
20260507102522 42 302 3.0 4.0 0.00 0.00 0.00 94 1009.0
20260507102018 42 143 1.0 1.0 0.00 0.00 0.00 94 1008.8
20260507101514 42 211 0.0 2.0 0.00 0.00 0.00 94 1009.2
20260507101010 42 163 0.0 0.0 0.00 0.00 0.00 94 1009.3
20260507100508 42 310 0.0 1.0 0.00 0.00 0.00 94 1009.1
20260507100006 42 241 0.0 0.0 0.00 0.00 0.00 94 1008.9
20260507095503 43 332 0.0 0.0 0.00 0.00 0.00 93 1008.9
20260507095000 43 302 0.0 0.0 0.00 0.00 0.00 93 1009.1
20260507094456 43 328 0.0 0.0 0.00 0.00 0.00 94 1009.3
20260507093953 43 232 0.0 0.0 0.00 0.00 0.00 94 1009.3
20260507093450 43 334 0.0 0.0 0.00 0.00 0.00 94 1008.9
20260507092949 43 344 1.0 1.0 0.00 0.00 0.00 94 1009.3
20260507092445 43 257 0.0 0.0 0.00 0.00 0.00 94 1009.4
20260507091942 43 186 0.0 4.0 0.00 0.00 0.00 94 1009.3
20260507091438 43 284 0.0 0.0 0.00 0.00 0.00 94 1009.0
20260507090934 43 23 0.0 0.0 0.00 0.00 0.00 94 1009.6
20260507090430 43 249 1.0 1.0 0.00 0.00 0.00 94 1009.8
20260507085927 43 315 0.0 0.0 0.00 0.00 0.00 94 1009.7
20260507085424 43 338 0.0 2.0 0.00 0.00 0.00 94 1009.7
20260507084921 44 235 1.0 3.0 0.00 0.00 0.00 93 1009.9
20260507084418 44 185 1.0 3.0 0.00 0.00 0.00 93 1009.5
20260507083915 44 354 0.0 0.0 0.00 0.00 0.00 93 1009.5
20260507083411 43 242 0.0 1.0 0.00 0.00 0.00 93 1009.2
20260507082907 43 108 0.0 0.0 0.00 0.00 0.00 94 1009.0
20260507082403 43 287 0.0 0.0 0.00 0.00 0.00 94 1009.1
20260507081901 44 248 0.0 0.0 0.00 0.00 0.00 94 1009.1
20260507081356 44 270 1.0 2.0 0.00 0.00 0.00 94 1009.1
20260507080853 44 5 0.0 1.0 0.00 0.00 0.00 94 1009.3
20260507080349 44 343 0.0 1.0 0.00 0.00 0.00 94 1009.3
20260507075845 43 30 0.0 0.0 0.00 0.00 0.00 94 1009.1
20260507075341 44 328 0.0 3.0 0.00 0.00 0.00 94 1008.9
20260507074838 44 347 0.0 0.0 0.00 0.00 0.00 94 1009.0
20260507074335 44 45 0.0 2.0 0.00 0.00 0.00 93 1009.3
20260507073832 44 246 0.0 3.0 0.00 0.00 0.00 94 1009.4
20260507073329 44 186 0.0 0.0 0.00 0.00 0.00 94 1009.4
20260507072826 44 4 0.0 0.0 0.00 0.00 0.00 94 1009.3
20260507072324 44 340 0.0 0.0 0.00 0.00 0.00 95 1009.3
20260507071821 44 182 0.0 1.0 0.00 0.00 0.00 95 1009.0
20260507071318 44 267 0.0 3.0 0.00 0.00 0.00 94 1009.0
20260507070814 44 281 0.0 2.0 0.00 0.00 0.00 96 1008.7
20260507070312 44 302 1.0 3.0 0.00 0.00 0.00 97 1008.7
20260507065808 44 280 0.0 0.0 0.00 0.00 0.00 97 1009.1
20260507065306 44 259 0.0 0.0 0.00 0.00 0.00 98 1009.1
20260507064802 44 214 0.0 0.0 0.00 0.00 0.00 97 1008.8
20260507064301 44 238 0.0 0.0 0.00 0.00 0.00 97 1008.5
20260507063758 44 234 0.0 0.0 0.00 0.00 0.00 97 1008.9
20260507063255 44 226 0.0 0.0 0.00 0.00 0.00 96 1009.0
20260507062752 44 303 0.0 0.0 0.00 0.00 0.00 96 1008.8
20260507062249 45 269 0.0 0.0 0.00 0.00 0.00 96 1009.0
20260507061747 45 257 0.0 0.0 0.00 0.00 0.00 95 1009.2
20260507061244 45 349 0.0 2.0 0.00 0.00 0.00 95 1009.1
20260507060743 45 323 0.0 2.0 0.00 0.00 0.00 95 1009.0
20260507060239 45 220 0.0 0.0 0.00 0.00 0.00 96 1009.1
20260507055735 45 282 1.0 4.0 0.00 0.00 0.00 97 1009.2
20260507055230 45 179 0.0 0.0 0.00 0.00 0.00 97 1009.2
20260507054727 45 225 0.0 0.0 0.00 0.00 0.00 97 1009.0
20260507054224 45 143 0.0 0.0 0.00 0.00 0.00 98 1009.2
20260507053721 46 192 0.0 0.0 0.00 0.00 0.00 98 1009.1
20260507053219 46 189 0.0 0.0 0.00 0.00 0.00 98 1009.3
20260507052718 46 232 0.0 0.0 0.00 0.00 0.00 98 1009.3
20260507052214 46 221 0.0 0.0 0.00 0.00 0.00 98 1009.3
20260507051712 46 195 0.0 0.0 0.00 0.00 0.00 98 1009.2
20260507051208 46 198 0.0 0.0 0.00 0.00 0.00 98 1009.3
20260507050705 46 173 0.0 0.0 0.00 0.00 0.00 98 1009.2
20260507050202 46 201 0.0 0.0 0.00 0.00 0.00 98 1009.3
20260507045659 47 153 0.0 0.0 0.00 0.00 0.00 98 1009.3
20260507045156 47 39 0.0 0.0 0.00 0.00 0.00 98 1009.2
20260507044652 47 222 0.0 0.0 0.00 0.00 0.00 99 1009.0
20260507044149 47 304 0.0 0.0 0.00 0.00 0.00 99 1008.8
20260507043645 47 299 0.0 0.0 0.00 0.00 0.00 99 1009.0
20260507043142 47 237 0.0 0.0 0.00 0.00 0.00 99 1009.0
20260507042638 47 244 0.0 0.0 0.00 0.00 0.00 99 1008.8
20260507042134 47 291 0.0 0.0 0.00 0.00 0.00 99 1009.1
20260507041631 47 312 0.0 0.0 0.00 0.00 0.00 99 1008.8
20260507041127 47 312 0.0 0.0 0.00 0.00 0.00 99 1009.3
20260507040625 47 313 0.0 0.0 0.00 0.00 0.00 99 1009.5
20260507040121 47 313 0.0 0.0 0.00 0.00 0.00 99 1009.3
20260507035616 47 359 0.0 0.0 0.00 0.32 0.32 99 1009.2
20260507035113 47 295 0.0 0.0 0.00 0.32 0.32 99 1009.1
20260507034610 48 280 0.0 0.0 0.00 0.32 0.32 99 1009.0
20260507034107 48 310 0.0 0.0 0.00 0.32 0.32 99 1009.1
20260507033605 48 310 0.0 0.0 0.00 0.32 0.32 99 1009.1
20260507033057 48 0 0.0 0.0 0.00 0.32 0.32 98 1008.9
20260507032554 48 2 0.0 0.0 0.00 0.32 0.32 99 1008.9
20260507032050 48 354 0.0 0.0 0.00 0.32 0.32 99 1008.8
20260507031547 48 32 0.0 0.0 0.00 0.32 0.32 99 1008.9
20260507031043 49 328 0.0 0.0 0.00 0.32 0.32 99 1009.0
20260507030540 49 266 0.0 0.0 0.00 0.32 0.32 99 1008.8
20260507030038 49 224 0.0 0.0 0.00 0.32 0.32 99 1008.7
20260507025535 49 296 0.0 0.0 0.00 0.32 0.32 98 1008.9
20260507025032 50 315 0.0 0.0 0.07 0.32 0.32 98 1009.0
20260507024530 50 304 0.0 0.0 0.12 0.32 0.32 98 1009.0
20260507024027 50 334 0.0 0.0 0.05 0.31 0.31 97 1009.2
20260507023522 50 233 0.0 0.0 0.07 0.30 0.30 97 1009.1
20260507023021 51 220 0.0 1.0 0.12 0.30 0.30 97 1009.0
20260507022517 51 304 0.0 2.0 0.05 0.29 0.29 97 1008.8
20260507022012 52 2 0.0 0.0 0.00 0.28 0.28 98 1009.0
20260507021508 52 301 0.0 0.0 0.00 0.28 0.28 98 1008.7
20260507021005 52 106 0.0 0.0 0.00 0.28 0.28 98 1008.5
20260507020502 52 342 0.0 0.0 0.00 0.28 0.28 98 1008.3
20260507015959 53 31 0.0 0.0 0.00 0.28 0.28 98 1008.2
20260507015458 53 7 0.0 0.0 0.00 0.28 0.28 98 1008.4
20260507014955 53 328 1.0 1.0 0.07 0.28 0.28 97 1008.3
20260507014451 53 119 1.0 2.0 0.07 0.28 0.28 97 1008.2
20260507013947 53 271 0.0 2.0 0.00 0.27 0.27 97 1007.9
20260507013444 54 219 1.0 2.0 0.00 0.27 0.27 97 1008.0
20260507012941 54 235 0.0 3.0 0.00 0.27 0.27 98 1008.0
20260507012438 54 304 0.0 0.0 0.00 0.27 0.27 99 1007.7
20260507011934 55 45 0.0 0.0 0.00 0.27 0.27 99 1007.9
20260507011431 55 30 0.0 0.0 0.12 0.27 0.27 99 1007.5
20260507010926 56 25 2.0 2.0 0.17 0.27 0.27 99 1007.6
20260507010421 57 52 0.0 0.0 0.12 0.25 0.25 99 1007.9
20260507005918 57 164 0.0 0.0 0.14 0.24 0.24 99 1007.5
20260507005415 57 174 0.0 0.0 0.12 0.23 0.23 99 1007.0
20260507004912 57 129 0.0 0.0 0.05 0.22 0.22 99 1007.2
20260507004409 57 152 0.0 0.0 0.00 0.21 0.21 99 1007.1
20260507003906 57 117 0.0 2.0 0.00 0.21 0.21 99 1007.0
20260507003401 57 121 1.0 1.0 0.00 0.21 0.21 99 1007.1
20260507002857 57 80 0.0 3.0 0.00 0.21 0.21 99 1006.7
20260507002353 57 161 0.0 0.0 0.00 0.21 0.21 99 1006.9
20260507001850 57 219 0.0 0.0 0.00 0.21 0.21 99 1006.8
20260507001347 57 81 0.0 0.0 0.00 0.21 0.21 99 1006.8
20260507000844 57 57 0.0 0.0 0.00 0.21 0.21 99 1006.9
20260507000339 57 187 0.0 0.0 0.00 0.21 0.21 99 1006.9
20260506235836 57 192 0.0 1.0 0.00 0.21 0.21 99 1006.8
20260506235333 57 220 0.0 0.0 0.00 0.21 0.21 99 1006.7
20260506234829 57 161 0.0 0.0 0.00 0.21 0.21 99 1006.7
20260506234327 57 162 0.0 0.0 0.00 0.21 0.21 99 1006.8
20260506233824 57 145 2.0 4.0 0.00 0.21 0.21 99 1006.6
20260506233319 57 128 0.0 3.0 0.00 0.21 0.21 99 1006.5
20260506232817 57 199 0.0 4.0 0.00 0.21 0.21 99 1006.4
20260506232312 57 99 1.0 3.0 0.00 0.21 0.21 99 1006.3
20260506231809 57 131 0.0 2.0 0.00 0.21 0.21 99 1006.5
20260506231307 57 129 2.0 3.0 0.07 0.21 0.21 99 1006.7
20260506230804 57 110 0.0 2.0 0.07 0.21 0.21 99 1006.6
20260506230301 57 148 1.0 4.0 0.00 0.20 0.20 99 1006.9
20260506225757 57 245 0.0 1.0 0.00 0.20 0.20 99 1006.7
20260506225254 57 172 1.0 3.0 0.00 0.20 0.20 99 1006.6
20260506224745 57 109 0.0 1.0 0.00 0.20 0.20 99 1006.8
20260506224243 57 163 1.0 2.0 0.00 0.20 0.20 99 1006.7
20260506223738 57 143 0.0 4.0 0.00 0.20 0.20 99 1006.8
20260506223234 57 118 0.0 4.0 0.00 0.20 0.20 99 1006.6
20260506222731 57 232 0.0 0.0 0.00 0.20 0.20 99 1006.8
20260506222226 57 133 2.0 2.0 0.00 0.20 0.20 98 1006.8
20260506221725 57 142 1.0 2.0 0.00 0.20 0.20 98 1006.7
20260506221223 57 225 0.0 2.0 0.00 0.20 0.20 98 1006.8
20260506220720 57 175 3.0 6.0 0.00 0.20 0.20 98 1006.8
20260506220214 57 134 1.0 6.0 0.00 0.20 0.20 97 1006.8
20260506215711 58 162 0.0 2.0 0.00 0.20 0.20 98 1006.8
20260506215206 58 110 3.0 4.0 0.00 0.20 0.20 97 1006.9
20260506214658 58 149 1.0 3.0 0.00 0.20 0.20 97 1006.7
20260506214155 58 154 1.0 3.0 0.00 0.20 0.20 97 1006.9
20260506213654 58 119 2.0 8.0 0.00 0.20 0.20 97 1006.7
20260506213150 58 122 1.0 3.0 0.00 0.20 0.20 97 1006.7
20260506212647 58 93 2.0 6.0 0.00 0.20 0.20 97 1006.7
20260506212142 58 95 2.0 3.0 0.00 0.20 0.20 97 1006.9
20260506211638 58 145 0.0 4.0 0.00 0.20 0.20 99 1006.9
20260506211135 58 120 0.0 0.0 0.00 0.20 0.20 98 1006.9
20260506210632 58 124 0.0 3.0 0.00 0.20 0.20 98 1006.7
20260506210129 58 165 1.0 2.0 0.00 0.20 0.20 98 1007.0
20260506205626 58 119 2.0 4.0 0.00 0.20 0.20 98 1006.8
20260506205120 58 157 0.0 1.0 0.00 0.20 0.20 98 1006.9
20260506204619 58 174 2.0 7.0 0.00 0.20 0.20 98 1007.0
20260506204115 59 175 4.0 8.0 0.00 0.20 0.20 98 1007.1
20260506203614 59 129 0.0 3.0 0.00 0.20 0.20 98 1007.1
20260506203110 59 119 0.0 2.0 0.00 0.20 0.20 99 1007.2
20260506202608 59 83 2.0 6.0 0.00 0.20 0.20 99 1007.2
20260506202104 59 141 0.0 2.0 0.00 0.20 0.20 99 1007.2
20260506201601 59 128 1.0 2.0 0.00 0.20 0.20 99 1007.4
20260506201058 59 115 0.0 1.0 0.05 0.20 0.20 99 1007.4
20260506200554 59 46 0.0 2.0 0.05 0.20 0.20 99 1007.2
20260506200051 58 155 0.0 6.0 0.07 0.19 0.19 99 1007.3
20260506195547 58 320 1.0 3.0 0.07 0.19 0.19 99 1007.7
20260506195044 58 173 0.0 2.0 0.00 0.18 0.18 99 1007.6
20260506194542 59 112 0.0 2.0 0.05 0.18 0.18 99 1007.6
20260506194038 59 179 0.0 0.0 0.12 0.18 0.18 99 1007.9
20260506193536 59 108 1.0 4.0 0.07 0.17 0.17 99 1007.9
20260506193032 59 142 0.0 3.0 0.12 0.16 0.16 99 1007.7
20260506192529 59 138 1.0 2.0 0.12 0.15 0.15 99 1007.7
20260506192025 59 93 0.0 2.0 0.19 0.14 0.14 99 1007.7
20260506191522 60 202 0.0 0.0 0.12 0.12 0.12 99 1007.7
20260506191018 60 128 0.0 0.0 0.05 0.11 0.11 99 1007.9
20260506190515 60 174 0.0 0.0 0.00 0.10 0.10 98 1008.2
20260506190012 61 131 0.0 2.0 0.00 0.10 0.10 98 1007.9
20260506185510 60 133 0.0 0.0 0.00 0.10 0.10 98 1007.7
20260506185006 60 317 0.0 0.0 0.00 0.10 0.10 98 1007.6
20260506184504 60 96 0.0 0.0 0.07 0.10 0.10 99 1007.6
20260506184001 60 168 0.0 0.0 0.07 0.10 0.10 98 1007.7
20260506183456 60 140 0.0 3.0 0.00 0.09 0.09 98 1008.1
20260506182953 60 146 0.0 0.0 0.05 0.09 0.09 98 1008.4
20260506182450 60 184 0.0 0.0 0.05 0.09 0.09 98 1008.4
20260506181947 60 231 0.0 0.0 0.07 0.08 0.08 98 1008.5
20260506181445 59 173 0.0 0.0 0.07 0.08 0.08 98 1008.5
20260506180942 59 137 0.0 0.0 0.05 0.07 0.07 98 1009.1
20260506180438 59 169 0.0 3.0 0.05 0.07 0.07 98 1008.9
20260506175935 59 153 0.0 0.0 0.00 0.06 0.06 97 1009.1
20260506175432 59 115 0.0 2.0 0.07 0.06 0.06 98 1008.9
20260506174928 59 138 0.0 0.0 0.00 0.05 0.05 98 1009.1
20260506174427 59 165 0.0 0.0 0.05 0.05 0.05 98 1009.1
20260506173923 59 138 0.0 0.0 0.12 0.05 0.05 97 1009.3
20260506173420 60 100 0.0 0.0 0.07 0.04 0.04 97 1009.3
20260506172917 59 119 0.0 2.0 0.05 0.03 0.03 96 1009.3
20260506172414 59 123 0.0 1.0 0.07 0.02 0.02 95 1009.4
20260506171911 60 104 0.0 0.0 0.07 0.02 0.02 95 1009.4
20260506171408 60 146 0.0 0.0 0.05 0.01 0.01 95 1009.5
20260506170906 60 146 0.0 0.0 0.05 0.01 0.01 93 1009.4
20260506170401 61 135 0.0 2.0 0.00 0.00 0.00 92 1009.2
20260506165900 61 121 0.0 1.0 0.00 0.00 0.00 91 1009.3
20260506165358 61 212 2.0 4.0 0.00 0.00 0.00 88 1009.4
20260506164849 62 193 1.0 8.0 0.00 0.00 0.00 84 1009.3
20260506164345 62 136 2.0 6.0 0.00 0.00 0.00 82 1009.4
20260506163844 63 170 2.0 3.0 0.00 0.00 0.00 81 1009.3
20260506163338 64 239 0.0 4.0 0.00 0.00 0.00 80 1009.6
20260506162833 65 287 2.0 4.0 0.00 0.00 0.00 76 1009.2
20260506162331 65 173 4.0 6.0 0.00 0.00 0.00 75 1009.3
20260506161828 65 140 2.0 2.0 0.00 0.00 0.00 76 1009.4
20260506161325 64 286 0.0 4.0 0.00 0.00 0.00 77 1009.5
20260506160818 65 102 3.0 8.0 0.00 0.00 0.00 76 1009.8
20260506160314 65 190 0.0 1.0 0.00 0.00 0.00 77 1009.8
20260506155813 64 117 0.0 4.0 0.00 0.00 0.00 76 1009.8
20260506155309 65 218 2.0 4.0 0.00 0.00 0.00 77 1009.9
20260506153421 65 90 2.0 3.0 0.00 0.00 0.00 76 1010.0
20260506152919 64 180 1.0 3.0 0.00 0.00 0.00 76 1010.1
20260506152416 64 135 0.0 3.0 0.00 0.00 0.00 77 1010.3
20260506151915 64 75 4.0 4.0 0.00 0.00 0.00 76 1010.1
20260506151411 64 123 0.0 7.0 0.00 0.00 0.00 77 1010.2
20260506150909 64 175 3.0 9.0 0.00 0.00 0.00 76 1010.2
20260506150404 65 144 1.0 8.0 0.00 0.00 0.00 75 1010.3
20260506145902 65 153 4.0 7.0 0.00 0.00 0.00 75 1010.4
20260506145358 65 145 2.0 6.0 0.00 0.00 0.00 75 1010.2
20260506144855 65 183 3.0 4.0 0.00 0.00 0.00 74 1010.2
20260506144352 66 213 0.0 4.0 0.00 0.00 0.00 74 1010.2
20260506143850 66 226 0.0 0.0 0.00 0.00 0.00 75 1009.9
20260506143347 66 323 1.0 3.0 0.00 0.00 0.00 74 1010.1
20260506142845 66 139 0.0 3.0 0.00 0.00 0.00 74 1010.4
20260506142343 66 123 0.0 7.0 0.00 0.00 0.00 74 1010.4
20260506141841 68 105 3.0 6.0 0.00 0.00 0.00 72 1010.1
20260506141339 69 262 1.0 3.0 0.00 0.00 0.00 70 1009.9
20260506140836 67 152 0.0 7.0 0.00 0.00 0.00 75 1010.0
20260506140333 65 83 2.0 3.0 0.00 0.00 0.00 75 1009.8
20260506135830 65 209 4.0 6.0 0.00 0.00 0.00 75 1009.9
20260506135327 65 179 1.0 4.0 0.00 0.00 0.00 76 1010.0
20260506134823 66 71 1.0 3.0 0.00 0.00 0.00 75 1009.8
20260506134319 65 145 0.0 1.0 0.00 0.00 0.00 77 1009.9
20260506133817 64 97 1.0 7.0 0.00 0.00 0.00 78 1009.8
20260506133313 65 138 1.0 2.0 0.00 0.00 0.00 77 1009.9
20260506132810 64 171 0.0 2.0 0.00 0.00 0.00 80 1010.1
20260506132307 63 174 2.0 4.0 0.00 0.00 0.00 81 1010.3
20260506131805 62 95 0.0 3.0 0.00 0.00 0.00 82 1010.4
20260506131301 61 80 3.0 4.0 0.00 0.00 0.00 82 1010.3
20260506130758 61 235 1.0 4.0 0.00 0.00 0.00 83 1010.3
20260506130255 61 27 0.0 6.0 0.00 0.00 0.00 82 1010.3
20260506125753 61 86 1.0 4.0 0.00 0.00 0.00 82 1010.5
20260506125251 61 198 0.0 1.0 0.00 0.00 0.00 83 1010.6
20260506124749 61 110 3.0 6.0 0.00 0.00 0.00 83 1010.6
20260506124246 61 338 2.0 8.0 0.00 0.00 0.00 83 1010.5
20260506123743 61 169 2.0 4.0 0.00 0.00 0.00 83 1010.5
20260506123242 61 110 2.0 8.0 0.00 0.00 0.00 83 1010.6
20260506122738 61 124 3.0 6.0 0.00 0.00 0.00 83 1010.4
20260506122236 61 117 2.0 4.0 0.00 0.00 0.00 85 1010.4
20260506121734 60 142 0.0 7.0 0.00 0.00 0.00 84 1010.4
20260506121230 60 126 2.0 8.0 0.00 0.00 0.00 84 1010.3
20260506120727 60 113 1.0 4.0 0.00 0.00 0.00 84 1010.3
20260506120225 60 125 2.0 6.0 0.00 0.00 0.00 84 1010.4
20260506115723 60 34 1.0 4.0 0.00 0.00 0.00 84 1010.6
20260506115221 60 150 1.0 8.0 0.00 0.00 0.00 84 1010.4
20260506114718 60 31 1.0 6.0 0.00 0.00 0.00 85 1010.7
20260506114216 60 139 0.0 0.0 0.00 0.00 0.00 85 1010.4
20260506113714 60 83 0.0 4.0 0.00 0.00 0.00 85 1010.6
20260506113211 59 172 1.0 3.0 0.00 0.00 0.00 84 1010.6
20260506112707 59 121 0.0 7.0 0.00 0.00 0.00 85 1010.7
20260506112205 58 88 5.0 9.0 0.00 0.00 0.00 85 1010.7